Regional Weather Roundup
Issued by NWS Raleigh/Durham, NC

Home | Current Version | Previous Version | Text Only | Print | Product List | Glossary On
Versions: 1 2 3 4 5 6 7 8 9 10 11 12 13 14 15 16 17 18 19 20 21 22 23 24 25 26 27 28 29 30 31 32 33 34 35 36 37 38 39 40 41 42 43 44 45 46 47 48 49 50
000
ASUS42 KRAH 311610
RWRRAH
NORTH CAROLINA WEATHER ROUNDUP
NATIONAL WEATHER SERVICE RALEIGH NC
1200 PM EDT THU JUL 31 2014

NOTE: "FAIR" INDICATES FEW OR NO CLOUDS BELOW 12,000 FEET WITH NO
SIGNIFICANT WEATHER AND/OR OBSTRUCTIONS TO VISIBILITY.

NCZ001-053-055-056-065-067-311700-
WESTERN NORTH CAROLINA

CITY           SKY/WX    TMP DP  RH WIND       PRES   REMARKS
ASHEVILLE      LGT RAIN  64  60  87 CALM      30.21R
JEFFERSON      PTSUNNY   67  55  67 CALM      30.24R
MORGANTON      CLOUDY    67  61  81 CALM      30.22R
HICKORY        CLOUDY    69  63  81 W5        30.17R
RUTHERFORDTON  RAIN      64  62  95 NW7       30.19R
MOUNT AIRY     CLOUDY    77  66  69 CALM      30.16R
BOONE          CLOUDY    66  57  73 E3        30.23S
$$

NCZ021-022-025-041-071-084-088-311700-
CENTRAL NORTH CAROLINA

CITY           SKY/WX    TMP DP  RH WIND       PRES   REMARKS
CHARLOTTE      CLOUDY    78  66  66 E5        30.14S
GREENSBORO     CLOUDY    77  64  64 SE3       30.15R
WINSTON-SALEM  CLOUDY    77  64  64 CALM      30.17R
RALEIGH-DURHAM CLOUDY    78  66  66 S8        30.15S
FORT BRAGG     PTSUNNY   82  68  60 E5        30.12S
FAYETTEVILLE   PTSUNNY   85  65  51 E13       30.12S
BURLINGTON     CLOUDY    80  65  59 VRB5      30.14S
LAURINBURG     PTSUNNY   80  70  71 E7        30.13R
$$

NCZ011-015-027-028-043-044-047-080-103-311700-
NORTHEASTERN NORTH CAROLINA

CITY           SKY/WX    TMP DP  RH WIND       PRES   REMARKS
ROCKY MT-WILSO CLOUDY    80  67  64 VRB5      30.15S
GREENVILLE     CLOUDY    82  66  57 S6        30.15F
WASHINGTON     MOSUNNY   80  65  59 SE9       30.15S
ELIZABETH CITY MOSUNNY   81  65  58 E9        30.15S
MANTEO         NOT AVBL
CAPE HATTERAS  MOSUNNY   85  61  44 VRB7      30.14S
$$

NCZ078-087-090-091-093-098-101-311700-
SOUTHEASTERN NORTH CAROLINA

CITY           SKY/WX    TMP DP  RH WIND       PRES   REMARKS
LUMBERTON      CLOUDY    83  68  60 E9        30.11S
GOLDSBORO      PTSUNNY   82  70  68 E9        30.12S
KINSTON        PTSUNNY   82  66  57 SE7       30.14F
KENANSVILLE    PTSUNNY   81  65  59 E5        30.14S
NEW BERN       MOSUNNY   85  65  51 E8        30.14S
CHERRY POINT   PTSUNNY   83  67  58 E12       30.13F
BEAUFORT       PTSUNNY   84  67  56 E10       30.13S
JACKSONVILLE   PTSUNNY   83  67  58 E9        30.12S
WILMINGTON     MOSUNNY   84  68  58 E12G21    30.11S
$$




USA.gov is the U.S. government's official web portal to all federal, state and local government web resources and services.